Home > Weather > Gitarama > Past weeks

Flag for Rwanda Past Weather in Gitarama, Rwanda — Yesterday and Last 2 Weeks

Now
75 °F

Smoke.


Feels Like: 78 °F
Forecast: 53 / 80 °F
Wind: 5 mph from Southeast

Location: Kigali Airport

Current Time: Jun 30, 2016 at 2:26:45 PM

Latest Report: Jun 30, 2016 at 12:00 PM


Visibility: N/A

Pressure: 30.27 "Hg (24.41 "Hg at 1872m altitude)

Humidity: 41%

Dew Point: 50 °F

Location of GitaramaLocation

Past Weather in Gitarama — Graph

°F

Gitarama Temperature Yesterday

Maximum temperature yesterday: 81 °F (at 2:30 PM)
Minimum temperature yesterday: 63 °F (at 7:30 AM)
Average temperature yesterday: 74 °F

High & Low Weather Summary for the Past Weeks

 TemperatureHumidityPressure
High81 °F (Jun 16, 2:00 PM)83% (Jun 16, 7:00 AM)30.33 "Hg (Jun 16, 7:00 AM)
Low59 °F (Jun 28, 6:00 AM)28% (Jun 29, 1:30 PM)30.07 "Hg (Jun 20, 4:00 PM)
Average71 °F56%30.19 "Hg
* Reported Jun 15 12:00 PM — Jun 30 12:00 PM, Gitarama, Weather by CustomWeather, © 2016

Note: Actual official high and low records may vary slightly from our data, if they occured in-between our weather recording intervals... More about our weather records

Advertising

Gitarama Weather History for the Previous 24 Hours

Scroll right to see more
 ConditionsComfort  
Time TempWeatherWind HumidityBarometerVisibility
12:00 PM
Thu, Jun 30
75 °FSmoke.5 mph41%30.27 "HgN/A
11:00 AM73 °FSmoke.10 mph41%30.27 "HgN/A
10:00 AM72 °FSmoke.8 mph44%30.30 "HgN/A
9:00 AM68 °FSmoke.6 mph49%30.30 "HgN/A
8:00 AM63 °FSmoke.No wind64%30.30 "HgN/A
3:00 AM61 °FClear.6 mph63%30.21 "Hg10 mi
2:30 AM63 °FClear.5 mph59%30.21 "Hg10 mi
1:30 AM61 °FClear.3 mph63%30.21 "Hg10 mi
12:00 AM66 °FClear.2 mph49%30.24 "Hg10 mi
11:30 PM
Wed, Jun 29
66 °FClear.2 mph49%30.24 "Hg10 mi
11:00 PM68 °FClear.2 mph46%30.21 "Hg10 mi
9:30 PM70 °FClear.5 mph46%30.21 "Hg10 mi
8:30 PM72 °FClear.3 mph38%30.18 "Hg10 mi
7:30 PM73 °FClear.3 mph33%30.15 "Hg10 mi
7:00 PM77 °FClear.3 mph30%30.15 "Hg10 mi
5:30 PM79 °FPassing clouds.5 mph30%30.12 "HgN/A
5:00 PM79 °FPassing clouds.5 mph30%30.12 "HgN/A
4:30 PM81 °FPassing clouds.7 mph28%30.12 "HgN/A
4:00 PM81 °FPassing clouds.7 mph28%30.12 "HgN/A
3:30 PM81 °FPassing clouds.8 mph28%30.12 "HgN/A
3:00 PM81 °FPassing clouds.7 mph30%30.15 "HgN/A
2:30 PM81 °FSunny.6 mph30%30.15 "Hg10 mi
Weather by CustomWeather, © 2016

See weather overviewHow to use our weather pages